TimeCDT,TemperatureF,Dew PointF,Humidity,Sea Level PressureIn,VisibilityMPH,Wind Direction,Wind SpeedMPH,Gust SpeedMPH,PrecipitationIn,Events,Conditions,WindDirDegrees,DateUTC
12:15 AM,60.8,48.4,64,30.01,10.0,East,5.8,-,N/A,,Clear,90,2013-05-18 05:15:00
12:35 AM,60.3,48.4,65,30.02,10.0,East,3.5,-,N/A,,Clear,100,2013-05-18 05:35:00
12:55 AM,59.5,48.6,67,30.02,10.0,Calm,Calm,-,N/A,,Scattered Clouds,0,2013-05-18 05:55:00
1:15 AM,59.4,49.1,69,30.03,10.0,Calm,Calm,-,N/A,,Overcast,0,2013-05-18 06:15:00
1:35 AM,59.0,49.3,70,30.01,10.0,ESE,3.5,-,N/A,,Overcast,110,2013-05-18 06:35:00
1:55 AM,58.1,49.3,72,30.02,10.0,ESE,3.5,-,N/A,,Mostly Cloudy,110,2013-05-18 06:55:00
2:15 AM,57.7,49.1,73,30.02,10.0,ESE,4.6,-,N/A,,Scattered Clouds,110,2013-05-18 07:15:00
2:35 AM,57.0,49.5,76,30.01,10.0,East,5.8,-,N/A,,Clear,100,2013-05-18 07:35:00
2:55 AM,56.5,49.5,77,30.01,10.0,ESE,5.8,-,N/A,,Clear,110,2013-05-18 07:55:00
3:15 AM,56.5,49.1,76,30.00,10.0,ESE,5.8,-,N/A,,Clear,110,2013-05-18 08:15:00
3:35 AM,55.9,49.1,78,30.00,10.0,ESE,4.6,-,N/A,,Clear,120,2013-05-18 08:35:00
3:55 AM,55.9,49.1,78,30.01,10.0,ESE,4.6,-,N/A,,Clear,120,2013-05-18 08:55:00
4:15 AM,55.4,49.1,79,30.00,10.0,ESE,3.5,-,N/A,,Clear,120,2013-05-18 09:15:00
4:35 AM,54.9,49.1,81,30.00,10.0,Calm,Calm,-,N/A,,Clear,0,2013-05-18 09:35:00
4:55 AM,54.7,48.9,81,29.99,10.0,ESE,4.6,-,N/A,,Clear,120,2013-05-18 09:55:00
5:15 AM,54.1,49.1,83,29.99,10.0,ESE,3.5,-,N/A,,Clear,120,2013-05-18 10:15:00
5:35 AM,54.0,48.7,82,30.00,10.0,ESE,3.5,-,N/A,,Clear,120,2013-05-18 10:35:00
5:55 AM,54.1,48.9,82,29.99,10.0,ESE,4.6,-,N/A,,Clear,120,2013-05-18 10:55:00
6:15 AM,54.5,48.9,81,30.00,10.0,SE,3.5,-,N/A,,Clear,130,2013-05-18 11:15:00
6:35 AM,54.5,49.1,82,30.01,10.0,East,3.5,-,N/A,,Clear,100,2013-05-18 11:35:00
6:55 AM,55.4,49.3,80,30.00,10.0,East,3.5,-,N/A,,Clear,100,2013-05-18 11:55:00
7:15 AM,56.5,49.6,78,30.01,10.0,Calm,Calm,-,N/A,,Clear,0,2013-05-18 12:15:00
7:35 AM,57.2,49.8,76,30.01,10.0,ESE,3.5,-,N/A,,Clear,120,2013-05-18 12:35:00
7:55 AM,58.1,50.4,75,30.00,10.0,East,5.8,-,N/A,,Clear,100,2013-05-18 12:55:00
8:15 AM,59.5,51.3,74,30.01,10.0,East,4.6,-,N/A,,Clear,100,2013-05-18 13:15:00
8:35 AM,61.2,52.0,72,30.01,10.0,Calm,Calm,-,N/A,,Clear,0,2013-05-18 13:35:00
8:55 AM,62.8,52.9,70,30.01,10.0,ENE,3.5,-,N/A,,Clear,70,2013-05-18 13:55:00
9:15 AM,64.8,53.8,68,30.01,10.0,ENE,4.6,-,N/A,,Clear,70,2013-05-18 14:15:00
9:35 AM,66.2,55.2,68,30.01,10.0,SSW,3.5,-,N/A,,Clear,210,2013-05-18 14:35:00
9:55 AM,67.6,56.3,67,30.01,10.0,SSW,3.5,-,N/A,,Clear,200,2013-05-18 14:55:00
10:15 AM,68.9,57.4,67,30.00,7.0,Calm,Calm,-,N/A,,Clear,0,2013-05-18 15:15:00
10:35 AM,71.6,58.8,64,29.99,10.0,SE,3.5,-,N/A,,Clear,140,2013-05-18 15:35:00
10:55 AM,72.5,59.2,63,29.99,10.0,WSW,3.5,-,N/A,,Clear,240,2013-05-18 15:55:00
11:15 AM,73.4,60.6,64,30.00,10.0,Calm,Calm,-,N/A,,Clear,0,2013-05-18 16:15:00
11:35 AM,73.9,60.6,63,29.99,10.0,SW,4.6,-,N/A,,Clear,220,2013-05-18 16:35:00
11:55 AM,74.8,61.3,63,29.99,10.0,SSW,4.6,-,N/A,,Scattered Clouds,210,2013-05-18 16:55:00
12:15 PM,75.6,60.4,59,29.98,10.0,South,3.5,-,N/A,,Mostly Cloudy,180,2013-05-18 17:15:00
12:35 PM,77.0,60.6,57,29.98,10.0,SE,5.8,-,N/A,,Mostly Cloudy,130,2013-05-18 17:35:00
12:55 PM,77.9,60.3,54,29.97,7.0,ESE,4.6,-,N/A,,Mostly Cloudy,120,2013-05-18 17:55:00
1:15 PM,77.2,60.4,56,29.96,10.0,SE,5.8,-,N/A,,Mostly Cloudy,140,2013-05-18 18:15:00
1:35 PM,78.3,60.1,53,29.95,10.0,ESE,6.9,-,N/A,,Mostly Cloudy,120,2013-05-18 18:35:00
2:15 PM,79.3,60.3,52,29.94,10.0,SSE,8.1,-,N/A,,Overcast,160,2013-05-18 19:15:00
2:35 PM,79.7,59.7,50,29.93,10.0,SSE,4.6,-,N/A,,Mostly Cloudy,150,2013-05-18 19:35:00
2:55 PM,79.5,59.7,51,29.92,10.0,SSE,5.8,-,N/A,,Mostly Cloudy,150,2013-05-18 19:55:00
3:15 PM,79.3,59.9,51,29.92,10.0,SSE,5.8,-,N/A,,Overcast,160,2013-05-18 20:15:00
3:35 PM,80.2,60.1,50,29.91,10.0,SSE,8.1,-,N/A,,Mostly Cloudy,160,2013-05-18 20:35:00
3:55 PM,79.7,60.3,51,29.90,10.0,SE,9.2,-,N/A,,Scattered Clouds,130,2013-05-18 20:55:00
4:15 PM,80.8,60.3,49,29.89,10.0,SSE,10.4,16.1,N/A,,Mostly Cloudy,160,2013-05-18 21:15:00
4:35 PM,81.0,59.5,48,29.89,10.0,SE,11.5,16.1,N/A,,Scattered Clouds,140,2013-05-18 21:35:00
5:15 PM,81.3,59.9,48,29.89,10.0,ESE,10.4,17.3,N/A,,Scattered Clouds,110,2013-05-18 22:15:00
5:35 PM,80.4,59.2,48,29.88,10.0,ESE,10.4,-,N/A,,Scattered Clouds,120,2013-05-18 22:35:00
5:55 PM,80.8,59.0,47,29.88,10.0,ESE,10.4,-,N/A,,Scattered Clouds,120,2013-05-18 22:55:00
6:15 PM,80.8,59.0,47,29.88,10.0,SE,9.2,-,N/A,,Clear,130,2013-05-18 23:15:00
6:35 PM,80.6,58.6,47,29.88,10.0,ESE,5.8,-,N/A,,Clear,120,2013-05-18 23:35:00
6:55 PM,80.2,58.1,47,29.88,10.0,SE,8.1,-,N/A,,Clear,130,2013-05-18 23:55:00
7:15 PM,79.7,58.1,47,29.88,10.0,ESE,8.1,-,N/A,,Clear,120,2013-05-19 00:15:00
7:35 PM,79.2,58.1,48,29.88,10.0,ESE,6.9,-,N/A,,Clear,120,2013-05-19 00:35:00
7:55 PM,78.1,58.3,50,29.89,10.0,ESE,4.6,-,N/A,,Scattered Clouds,120,2013-05-19 00:55:00
8:15 PM,77.7,58.1,51,29.89,10.0,ESE,3.5,-,N/A,,Mostly Cloudy,120,2013-05-19 01:15:00
8:35 PM,76.8,58.1,52,29.89,10.0,ESE,5.8,-,N/A,,Overcast,120,2013-05-19 01:35:00
8:55 PM,75.7,58.3,55,29.89,10.0,ESE,4.6,-,N/A,,Overcast,110,2013-05-19 01:55:00
9:15 PM,75.4,58.3,55,29.88,10.0,ESE,5.8,-,N/A,,Overcast,110,2013-05-19 02:15:00
9:35 PM,73.9,58.5,58,29.88,10.0,ESE,5.8,-,N/A,,Scattered Clouds,120,2013-05-19 02:35:00
9:55 PM,73.0,58.6,61,29.87,10.0,ESE,4.6,-,N/A,,Clear,120,2013-05-19 02:55:00
10:15 PM,73.4,58.6,60,29.87,10.0,ESE,5.8,-,N/A,,Clear,120,2013-05-19 03:15:00
10:35 PM,71.8,58.6,63,29.86,10.0,ESE,4.6,-,N/A,,Clear,110,2013-05-19 03:35:00
10:55 PM,71.2,58.5,64,29.86,10.0,ESE,3.5,-,N/A,,Clear,110,2013-05-19 03:55:00
11:15 PM,70.3,58.6,66,29.86,10.0,East,4.6,-,N/A,,Clear,100,2013-05-19 04:15:00
11:35 PM,68.9,58.6,70,29.87,10.0,East,6.9,-,N/A,,Clear,100,2013-05-19 04:35:00